Regional Weather Roundup
Issued by NWS Upton, NY

Home | Current Version | Previous Version | Text Only | Print | Product List | Glossary On
Versions: 1 2 3 4 5 6 7 8 9 10 11 12 13 14 15 16 17 18 19 20 21 22 23 24 25 26 27 28 29 30 31 32 33 34 35 36 37 38 39 40 41 42 43 44 45 46 47 48 49 50
000
ASUS41 KOKX 010605
RWROKX

REGIONAL WEATHER ROUNDUP
NATIONAL WEATHER SERVICE NEW YORK NY
100 AM EST SUN MAR 01 2015

NOTE: "FAIR" INDICATES FEW OR NO CLOUDS BELOW 12,000 FEET WITH NO
SIGNIFICANT WEATHER AND/OR OBSTRUCTIONS TO VISIBILITY.

NYZ071-072-176-178-NJZ106-104-010700-
NEW YORK CITY METRO AREA


CITY           SKY/WX    TMP DP  RH WIND       PRES   REMARKS
CENTRAL PARK   CLEAR     26  -1  31 W5        30.73F WCI  20
LAGUARDIA APRT PTCLDY    26   2  35 CALM      30.72F
KENNEDY INTL   CLEAR     22   8  55 W6        30.74F WCI  14
NEWARK/LIBERTY PTCLDY    22   2  42 CALM      30.72F
BRNX BOT. GARD   N/A    N/A N/A N/A W9        30.73S
TETERBORO      CLEAR     16   3  56 CALM      30.72F
$$

NYZ177-179-078>081-010700-
LONG ISLAND NEW YORK

CITY           SKY/WX    TMP DP  RH WIND       PRES   REMARKS
FARMINGDALE    CLEAR     16   8  71 CALM      30.72F
ISLIP          CLEAR     16   5  62 CALM      30.70F
SHIRLEY        CLEAR     11   1  64 CALM      30.73F
WESTHAMPTON    CLEAR      1  -7  68 CALM      30.73F
MONTAUK POINT    N/A     23  13  65 W3        30.73F
$$

NYZ052-065-067-010700-
HUDSON VALLEY

CITY           SKY/WX    TMP DP  RH WIND       PRES   REMARKS
WHITE PLAINS   CLEAR     10   1  67 NW6       30.67F WCI   0
NEWBURGH       NOT AVBL
MONTGOMERY     FAIR       2  -5  72 CALM      30.67F
POUGHKEEPSIE   CLEAR      3  -4  72 NE3       30.70F
ALBANY         PTCLDY     5  -2  72 CALM      30.71F
$$

NJZ001-105-106-008-010-013-015-019>022-104-010700-
NEW JERSEY

CITY           SKY/WX    TMP DP  RH WIND       PRES   REMARKS
NEWARK/LIBERTY PTCLDY    22   2  42 CALM      30.72F
TETERBORO      CLEAR     16   3  56 CALM      30.72F
CALDWELL       CLEAR     13   1  59 CALM      30.72F
MORRISTOWN     CLEAR     10   5  79 CALM      30.71F
SOMERVILLE     CLEAR      8   2  76 CALM      30.70F
SUSSEX         MIX PCPN   4  -2  76 SW3       30.68F
ANDOVER          N/A      2  -3  80 CALM      30.67F
TRENTON        CLEAR     15   3  59 CALM      30.70F
MILLVILLE      CLEAR     13   7  77 CALM      30.72F
ATLANTIC CITY  CLEAR     13   6  74 CALM      30.73F
WRIGHTSTOWN    CLEAR     12   6  78 E1        30.69F
TOMS RIVER     CLEAR      9   7  92 CALM      30.73S
BELMAR         CLEAR     19   3  49 SW3       30.71S
$$

PAZ047>061-062-071-010700-
EASTERN PENNSYLVANIA

CITY           SKY/WX    TMP DP  RH WIND       PRES   REMARKS
PHILADELPHIA   FAIR      23   7  50 CALM      30.73F
ALLENTOWN      CLEAR      8   0  69 CALM      30.69F
SCRANTON       PTCLDY    10  -3  55 E7        30.63F WCI  -1
$$

CTZ002-004>006-009-010-012-RIZ004-006-007-MAZ004-011-015-010700-
SOUTHERN NEW ENGLAND
 IN CT

CITY           SKY/WX    TMP DP  RH WIND       PRES   REMARKS
BRADLEY INTL   CLEAR      8  -3  61 CALM      30.70F
HARTFORD       CLEAR      8   3  80 MISG      30.73F
DANBURY        CLEAR      2  -6  69 CALM      30.70F
WTRBRY/OXFORD  CLEAR     10  -9  40 CALM      30.67R
BRIDGEPORT     CLEAR     16   8  71 N3        30.72F
MERIDEN        CLEAR      4  -3  73 CALM      30.72F
NEW HAVEN      CLEAR      8   2  76 N3        30.72F
CHESTER        FAIR      19   0  42 NW5       30.69F WCI  13
GROTON         CLEAR     11   7  84 N3        30.72F
WILLIMANTIC    CLEAR      2  -4  76 NE3       30.72F

 IN RI

CITY           SKY/WX    TMP DP  RH WIND       PRES   REMARKS
PROVIDENCE     CLEAR     15   2  56 W5        30.71F WCI   8
BLOCK ISLAND   CLEAR     25   7  46 NW6       30.69F WCI  18
WESTERLY       CLEAR      7   3  84 CALM      30.72F

 IN MA

CITY           SKY/WX    TMP DP  RH WIND       PRES   REMARKS
BOSTON         CLEAR     21   2  43 W7        30.71R WCI  12
WORCESTER      FAIR      16  -2  45 W12       30.62F WCI   3
WESTFIELD      CLEAR      4  -4  69 CALM      30.70S
PROVINCETOWN   CLEAR     25  10  54 W9        30.71R WCI  15
NANTUCKET      CLEAR     17  10  74 W5        30.71S WCI  10
$$

ANZ330-335-338-340-345-350-353-355-010700-
COASTAL MARINE OBSERVATIONS


STATION/POSITION TIME  SKY/WX   TEMP    WIND        PRES    VSBY  WAVE
                                AIR SEA DIR/SP/G                  HT/PER
                 (UTC)          (F)     (DEG/KT/KT) (MB)    (MI)  (FT/S)
NY HARB ENTRANCE 0600            28 37  270/  6/  8 1040.3          1/ 8
4S FIRE IS       NOT AVBL
20S FIRE ISLAND  0500               37              1041.6          2/ 9
23SW MTP         0600                                 N/A           2/ 8
HUDSON CANYON    NOT AVBL
EXECUTION ROCKS  NOT AVBL
WESTERN LI SOUND NOT AVBL
CENTRAL LI SOUND NOT AVBL
EASTERN LI SOUND NOT AVBL
ROBBINS REEF     0600            25     280/  4/  5 1039.1
$$


>>>>>>>>>>>>>>>>>>>>>>>>>>>> KEY <<<<<<<<<<<<<<<<<<<<<<<<<<<
>                                                          <
>     SKY/WX - SKY CONDITION/PRESENT WEATHER               <
>     TMP    - TEMPERATURE IN FAHRENHEIT                   <
>     DP     - DEWPOINT IN FAHRENHEIT                      <
>     RH     - RELATIVE HUMIDITY IN PERCENT                <
>     WIND   - DIRECTION AND SPEED IN MPH                  <
>     PRES   - MEAN SEA LEVEL PRESSURE IN INCHES OF HG     <
>     WCI    - WIND CHILL INDEX                            <
>     VSB    - VISIBILITY IN MILES                         <
>     HX     - HEAT INDEX                                  <
>     TC     - TEMPERATURE IN CELSIUS                      <
>     VRB    - VARIABLE WIND DIRECTION                     <
>                                                          <
>>>>>>>>>>>>>>>>>>>>>>>>>>>> KEY <<<<<<<<<<<<<<<<<<<<<<<<<<<




USA.gov is the U.S. government's official web portal to all federal, state and local government web resources and services.